AAL1463 KJAX-KDCA

Flight info

Callsign AAL1463
Flight time N/A
Altitude 37000
Route CROSB2 WISPR JROSS Q87 RAYVO Q113 AARNN WAVES CAPSS4
Aircraft A320/M-SDE3FGHIRWY/LB1

Departure

Time 2026-05-04 21:59
Airport Jacksonville International Airport (KJAX)

Arrival

Time N/A
Airport Ronald Reagan Washington National Airport (KDCA)
Time Latitude Longitude Altitude Speed Heading
2026-05-04 21:33 30.49284 -81.68619 35 ft 0 kts 104°
2026-05-04 21:51 30.49288 -81.68638 34 ft 4 kts 104°
2026-05-04 21:51 30.49295 -81.68668 32 ft 4 kts 98°
2026-05-04 21:51 30.49295 -81.68698 32 ft 4 kts 66°
2026-05-04 21:51 30.49292 -81.68706 32 ft 0 kts 56°
2026-05-04 21:54 30.49296 -81.68703 33 ft 4 kts 35°
2026-05-04 21:54 30.49384 -81.68714 35 ft 15 kts 326°
2026-05-04 21:54 30.49385 -81.68791 35 ft 9 kts 271°
2026-05-04 21:55 30.49383 -81.68869 35 ft 10 kts 266°
2026-05-04 21:55 30.49380 -81.68955 35 ft 13 kts 284°
2026-05-04 21:55 30.49514 -81.69058 35 ft 30 kts 330°
2026-05-04 21:55 30.49679 -81.69187 35 ft 22 kts 297°
2026-05-04 21:56 30.49648 -81.69333 36 ft 19 kts 253°
2026-05-04 21:56 30.49615 -81.69450 36 ft 26 kts 249°
2026-05-04 21:56 30.49529 -81.69725 35 ft 29 kts 250°
2026-05-04 21:56 30.49484 -81.69871 35 ft 9 kts 251°
2026-05-04 21:57 30.49501 -81.69930 34 ft 7 kts 320°
2026-05-04 21:57 30.49545 -81.69950 33 ft 6 kts 342°
2026-05-04 21:57 30.49572 -81.69960 35 ft 6 kts 342°
2026-05-04 21:57 30.49608 -81.69973 34 ft 4 kts 353°
2026-05-04 21:58 30.49632 -81.69958 35 ft 3 kts 41°
2026-05-04 21:58 30.49644 -81.69925 35 ft 15 kts 71°
2026-05-04 21:58 30.49768 -81.69500 37 ft 91 kts 71°
2026-05-04 21:58 30.50050 -81.68599 38 ft 148 kts 70°
2026-05-04 21:59 30.50437 -81.67354 346 ft 171 kts 73°
2026-05-04 21:59 30.50861 -81.66010 949 ft 182 kts 72°
2026-05-04 21:59 30.51232 -81.64576 1592 ft 190 kts 73°
2026-05-04 21:59 30.52006 -81.63237 2067 ft 218 kts 43°
2026-05-04 22:00 30.53480 -81.62497 2525 ft 248 kts 14°
2026-05-04 22:00 30.55235 -81.61965 2933 ft 277 kts 19°
2026-05-04 22:00 30.57201 -81.61230 3005 ft 317 kts 21°
2026-05-04 22:00 30.59393 -81.60359 3009 ft 355 kts 21°
2026-05-04 22:01 30.61744 -81.59425 2962 ft 347 kts 20°
2026-05-04 22:01 30.63923 -81.58609 3661 ft 316 kts 19°
2026-05-04 22:01 30.65868 -81.57983 5183 ft 285 kts 14°
2026-05-04 22:01 30.67544 -81.57454 6405 ft 234 kts 11°
2026-05-04 22:02 30.69130 -81.56833 6971 ft 247 kts 12°
2026-05-04 22:02 30.70787 -81.56168 7662 ft 257 kts 12°
2026-05-04 22:02 30.72584 -81.55490 7743 ft 279 kts 13°
2026-05-04 22:02 30.74430 -81.54803 7840 ft 284 kts 11°
2026-05-04 22:03 30.76324 -81.54164 7961 ft 285 kts 16°
2026-05-04 22:03 30.78212 -81.53450 7956 ft 285 kts 18°
2026-05-04 22:03 30.80082 -81.52686 7959 ft 285 kts 19°
2026-05-04 22:03 30.81961 -81.51915 8068 ft 290 kts 18°
2026-05-04 22:04 30.83877 -81.51145 8983 ft 291 kts 18°
2026-05-04 22:04 30.85802 -81.50389 9901 ft 294 kts 17°
2026-05-04 22:04 30.87796 -81.49625 10399 ft 312 kts 17°
2026-05-04 22:04 30.89942 -81.48813 10677 ft 336 kts 16°
2026-05-04 22:05 30.92245 -81.47948 10891 ft 359 kts 17°
2026-05-04 22:05 30.94714 -81.47198 11036 ft 380 kts
2026-05-04 22:05 30.97416 -81.46588 11228 ft 399 kts
2026-05-04 22:05 31.00133 -81.45979 11749 ft 406 kts
2026-05-04 22:06 31.02929 -81.45356 12385 ft 410 kts
2026-05-04 22:06 31.05742 -81.44728 13035 ft 413 kts
2026-05-04 22:06 31.08585 -81.44089 13678 ft 417 kts 10°
2026-05-04 22:06 31.11448 -81.43442 14247 ft 421 kts
2026-05-04 22:07 31.13967 -81.42876 14707 ft 424 kts
2026-05-04 22:07 31.16879 -81.42221 15220 ft 428 kts
2026-05-04 22:07 31.19794 -81.41442 15710 ft 433 kts 17°
2026-05-04 22:07 31.21536 -81.40627 16009 ft 437 kts 21°